Voltar ao catálogo

AYAME 1 DEB

AtivoHEO
NORAD 32483·DEBRIS·🇯🇵 Japan

Lançado Feb 6, 1979 de Tanegashima Space Center

Loading…

Próximas Passagens (próximas 24 horas)

TLE

AtualizadoSource: Space-Track

Época: Sep 14, 2026, 09:39 UTC

1 32483U 79009D   26257.40274823 -.00000102  00000-0  00000-0 0  9991
2 32483   7.9896 280.1426 3726711 193.4318 307.9425  1.69447335114547

Acompanhe AYAME 1 DEB em tempo real com AllMySat

Download on the App Store